Altus AFB, OK

8:25 PM CDT on July 26, 2017 (GMT -0500)
Altus Air Force Base

Weather History for KLTS - March, 2013

Change the Weather History Date:

Saturday, March 23, 2013

  Actual Average Record
Temperature  
Mean Temperature 44 °F -  
Max Temperature 50 °F 65 °F 85 °F (2009)
Min Temperature 36 °F 41 °F 28 °F (2006)
Degree Days  
Heating Degree Days 22    
Moisture  
Dew Point 40 °F    
Average Humidity 88    
Maximum Humidity 100    
Minimum Humidity 76    
Precipitation  
Precipitation 0.00 in - - ()
Sea Level Pressure  
Sea Level Pressure 29.83 in    
Wind  
Wind Speed 10 mph (NE)    
Max Wind Speed 26 mph    
Max Gust Speed 37 mph    
Visibility 9 miles    
Events Rain    
Averages and records for this station are not official NWS values.
T = Trace of Precipitation, MM = Missing Value Source: NWS Daily Summary

Daily Weather History Graph

Daily Weather History Graph

Search for Another Location

Airport or City:

Trip Planner

Search our weather history database for the weather conditions in past years. The results will help you decide how hot, cold, wet, or windy it might be!

Date:

Astronomy

Mar. 23, 2013 Rise Set
Actual Time 7:36 AM CDT 7:51 PM CDT
Civil Twilight 7:11 AM CDT 8:16 PM CDT
Nautical Twilight 6:41 AM CDT 8:46 PM CDT
Astronomical Twilight 6:11 AM CDT 9:15 PM CDT
Moon 4:27 PM CDT (3/23) 5:05 AM CDT (3/23)
Length of Visible Light 13h 05m
Length of Day
12h 15m
Waxing Gibbous, 85% of the Moon is Illuminated
Mar 23
Waxing Gibbous
Mar 27
Full
Apr 2
Last Quarter
Apr 10
New
Apr 18
First Quarter

Hourly Weather History & Observations

Time (CDT) Temp. Windchill Dew Point Humidity Pressure Visibility Wind Dir Wind Speed Gust Speed Precip Events Conditions
12:38 AM 44.6 °F 39.2 °F 37.4 °F 76% 29.85 in 10.0 mi East 10.4 mph - N/A   Overcast
12:58 AM 44.2 °F 40.3 °F 38.1 °F 79% 29.85 in 10.0 mi East 6.9 mph - N/A   Overcast
1:58 AM 44.2 °F 40.3 °F 38.1 °F 79% 29.85 in 10.0 mi East 6.9 mph - N/A   Overcast
2:23 AM 44.6 °F 38.8 °F 37.4 °F 76% 29.82 in 10.0 mi East 11.5 mph - N/A   Overcast
2:58 AM 44.1 °F 40.8 °F 38.5 °F 81% 29.84 in 10.0 mi East 5.8 mph - N/A   Overcast
3:53 AM 44.6 °F 39.7 °F 39.2 °F 81% 29.83 in 10.0 mi East 9.2 mph - N/A   Overcast
3:58 AM 43.9 °F 39.3 °F 38.8 °F 82% 29.84 in 10.0 mi ESE 8.1 mph - N/A   Overcast
4:13 AM 42.8 °F 38.6 °F 39.2 °F 87% 29.82 in 10.0 mi East 6.9 mph - N/A   Overcast
4:28 AM 42.8 °F 38.0 °F 39.2 °F 87% 29.82 in 10.0 mi East 8.1 mph - N/A   Overcast
4:58 AM 43.0 °F 38.8 °F 39.7 °F 88% 29.82 in 9.0 mi ESE 6.9 mph - N/A   Overcast
5:03 AM 42.8 °F 38.0 °F 39.2 °F 87% 29.79 in 9.0 mi East 8.1 mph - N/A   Overcast
5:18 AM 42.8 °F 38.0 °F 39.2 °F 87% 29.79 in 9.0 mi East 8.1 mph - N/A   Overcast
5:43 AM 42.8 °F 38.6 °F 39.2 °F 87% 29.77 in 9.0 mi ENE 6.9 mph - N/A   Overcast
5:58 AM 43.0 °F 39.5 °F 39.7 °F 88% 29.79 in 9.0 mi East 5.8 mph - N/A   Overcast
6:03 AM 42.8 °F 38.0 °F 39.2 °F 87% 29.78 in 9.0 mi ENE 8.1 mph - N/A   Overcast
6:33 AM 42.8 °F 38.6 °F 39.2 °F 87% 29.78 in 10.0 mi East 6.9 mph - N/A   Overcast
6:53 AM 42.8 °F 39.3 °F 39.2 °F 87% 29.79 in 10.0 mi NE 5.8 mph - N/A Rain Light Rain
6:58 AM 43.7 °F 42.1 °F 39.7 °F 86% 29.81 in 10.0 mi East 3.5 mph - 0.00 in Rain Light Rain
7:03 AM 42.8 °F - 39.2 °F 87% 29.82 in 9.0 mi Variable 1.2 mph - N/A Rain Light Rain
7:14 AM 42.8 °F - 41.0 °F 93% 29.79 in 9.0 mi NE 2.3 mph - N/A   Overcast
7:34 AM 42.8 °F 41.1 °F 41.0 °F 93% 29.81 in 10.0 mi East 3.5 mph - N/A   Overcast
7:54 AM 42.8 °F 37.0 °F 41.0 °F 93% 29.75 in 10.0 mi East 10.4 mph - N/A Rain Light Rain
7:58 AM 43.3 °F 40.7 °F 40.3 °F 89% 29.81 in 9.0 mi Variable 4.6 mph - 0.00 in Rain Light Rain
8:10 AM 42.8 °F - 41.0 °F 93% 29.82 in 8.0 mi East 2.3 mph - N/A   Overcast
8:58 AM 43.7 °F 39.7 °F 41.5 °F 92% 29.83 in 8.0 mi NNE 6.9 mph - 0.00 in   Overcast
9:06 AM 44.6 °F 40.7 °F 41.0 °F 87% 29.82 in 7.0 mi North 6.9 mph - N/A   Overcast
9:46 AM 44.6 °F 41.4 °F 42.8 °F 93% 29.83 in 6.0 mi NNE 5.8 mph - N/A   Overcast
9:58 AM 44.1 °F 40.8 °F 42.8 °F 95% 29.84 in 7.0 mi North 5.8 mph - N/A   Overcast
9:59 AM 44.6 °F 40.7 °F 42.8 °F 93% 29.83 in 7.0 mi North 6.9 mph - N/A   Overcast
10:58 AM 44.4 °F 41.2 °F 42.8 °F 94% 29.84 in 5.0 mi ENE 5.8 mph - N/A   Overcast
11:03 AM 44.6 °F 40.7 °F 42.8 °F 93% 29.83 in 4.0 mi NE 6.9 mph - N/A   Overcast
11:48 AM 44.6 °F 40.2 °F 44.6 °F 100% 29.83 in 3.0 mi NE 8.1 mph - N/A   Overcast
11:53 AM 44.6 °F 41.4 °F 44.6 °F 100% 29.83 in 2.5 mi NE 5.8 mph - N/A   Overcast
11:54 AM 44.6 °F 40.7 °F 44.6 °F 100% 29.83 in 2.5 mi NE 6.9 mph - N/A   Overcast
11:58 AM 44.6 °F 40.2 °F 44.2 °F 99% 29.84 in 3.0 mi NNE 8.1 mph - 0.00 in   Overcast
12:09 PM 44.6 °F 39.2 °F 44.6 °F 100% 29.82 in 3.0 mi NNE 10.4 mph - N/A   Overcast
12:29 PM 44.6 °F 40.7 °F 44.6 °F 100% 29.82 in 5.0 mi NNE 6.9 mph - N/A   Overcast
12:44 PM 44.6 °F 40.2 °F 44.6 °F 100% 29.80 in 8.0 mi NE 8.1 mph - N/A   Overcast
12:58 PM 45.7 °F 41.5 °F 43.7 °F 93% 29.82 in 8.0 mi NE 8.1 mph - 0.00 in   Overcast
1:23 PM 46.4 °F 41.9 °F 42.8 °F 87% 29.79 in 10.0 mi NE 9.2 mph - N/A   Overcast
1:58 PM 46.4 °F 41.1 °F 43.2 °F 88% 29.79 in 10.0 mi NE 11.5 mph - N/A   Overcast
2:18 PM 46.4 °F 41.5 °F 42.8 °F 87% 29.77 in 10.0 mi NE 10.4 mph - N/A   Overcast
2:28 PM 46.4 °F 41.9 °F 42.8 °F 87% 29.77 in 10.0 mi NE 9.2 mph - N/A   Overcast
2:58 PM 46.4 °F 41.5 °F 42.8 °F 87% 29.75 in 10.0 mi NE 10.4 mph - N/A   Overcast
3:33 PM 46.4 °F 41.5 °F 42.8 °F 87% 29.74 in 10.0 mi NNE 10.4 mph - N/A   Overcast
3:58 PM 46.9 °F - 42.6 °F 85% 29.74 in 10.0 mi NE 6.9 mph - N/A   Overcast
4:58 PM 49.8 °F - 43.0 °F 77% 29.72 in 10.0 mi NE 10.4 mph - N/A   Overcast
5:13 PM 50.0 °F - 42.8 °F 76% 29.71 in 10.0 mi NE 12.7 mph - N/A   Overcast
5:18 PM 50.0 °F - 42.8 °F 76% 29.71 in 10.0 mi NE 13.8 mph - N/A   Overcast
5:43 PM 48.2 °F - 42.8 °F 82% 29.69 in 10.0 mi NE 13.8 mph - N/A   Overcast
5:53 PM 48.2 °F - 42.8 °F 82% 29.69 in 10.0 mi NNE 13.8 mph - N/A   Overcast
5:58 PM 48.2 °F - 42.4 °F 80% 29.70 in 10.0 mi NNE 12.7 mph - N/A   Overcast
6:58 PM 46.4 °F 40.7 °F 41.9 °F 84% 29.70 in 10.0 mi NE 12.7 mph - N/A   Overcast
7:58 PM 44.4 °F 36.1 °F 39.9 °F 84% 29.81 in 10.0 mi NNW 20.7 mph 26.5 mph N/A   Overcast
8:10 PM 42.8 °F 34.5 °F 39.2 °F 87% 29.83 in 10.0 mi North 18.4 mph 26.5 mph N/A   Overcast
8:25 PM 41.0 °F 31.1 °F 39.2 °F 93% 29.84 in 10.0 mi NNW 23.0 mph 28.8 mph N/A Rain Light Rain
8:56 PM 41.0 °F 32.5 °F 39.2 °F 93% 29.87 in 10.0 mi NNW 17.3 mph - N/A   Overcast
8:58 PM 40.1 °F 31.0 °F 38.8 °F 95% 29.88 in 10.0 mi NNW 18.4 mph - 0.00 in   Overcast
9:03 PM 41.0 °F 32.8 °F 37.4 °F 87% 29.88 in 10.0 mi NNW 16.1 mph - N/A   Overcast
9:07 PM 41.0 °F 32.8 °F 37.4 °F 87% 29.87 in 10.0 mi North 16.1 mph 23.0 mph N/A Rain Light Rain
9:37 PM 39.2 °F 29.6 °F 37.4 °F 93% 29.92 in 9.0 mi NNW 19.6 mph 24.2 mph N/A Rain Light Rain
9:50 PM 39.2 °F 29.6 °F 37.4 °F 93% 29.94 in 10.0 mi NNW 19.6 mph - N/A   Overcast
9:58 PM 39.0 °F 30.6 °F 37.0 °F 93% 29.96 in 10.0 mi NNW 15.0 mph - 0.00 in   Overcast
10:03 PM 39.2 °F 30.5 °F 37.4 °F 93% 29.94 in 10.0 mi NW 16.1 mph - N/A   Overcast
10:13 PM 39.2 °F 29.6 °F 37.4 °F 93% 29.94 in 10.0 mi NNW 19.6 mph 24.2 mph N/A   Overcast
10:28 PM 39.2 °F 28.0 °F 37.4 °F 93% 29.96 in 10.0 mi NNW 26.5 mph 33.4 mph N/A   Overcast
10:58 PM 38.5 °F 28.9 °F 33.4 °F 82% 29.96 in 10.0 mi NNW 18.4 mph 27.6 mph N/A   Mostly Cloudy
11:03 PM 37.4 °F 28.2 °F 32.0 °F 81% 29.94 in 10.0 mi North 16.1 mph 27.6 mph N/A   Scattered Clouds
11:33 PM 37.4 °F 25.9 °F 32.0 °F 81% 29.97 in 10.0 mi NW 25.3 mph 28.8 mph N/A   Mostly Cloudy
11:48 PM 37.4 °F 26.6 °F 32.0 °F 81% 29.97 in 10.0 mi NW 21.9 mph - N/A   Scattered Clouds
11:58 PM 36.3 °F 24.9 °F 30.6 °F 80% 30.01 in 10.0 mi NW 23.0 mph 36.8 mph N/A   Scattered Clouds